KE5FMN Weather Reports


time (UTC)temp
C
wind
direction
speed
KPH
gust
KPH
rain 1hr
cm
rain 24hr
cm
rain mn
cm
humidity
%
barometer
mb
20260906150059 34 276 0.0 3.2 0.00 0.00 0.00 55 1014.0
20260906144557 34 334 0.0 3.2 0.00 0.00 0.00 56 1014.0
20260906143101 33 0 0.0 1.6 0.00 0.00 0.00 58 1014.3
20260906141611 32 0 0.0 1.6 0.00 0.00 0.00 62 1014.3
20260906134617 31 83 0.0 0.0 0.00 0.00 0.00 66 1014.2
20260906133106 29 0 0.0 0.0 0.00 0.00 0.00 71 1014.2
20260906131602 27 0 0.0 0.0 0.00 0.00 0.00 75 1014.3
20260906130147 26 0 0.0 0.0 0.00 0.00 0.00 81 1014.3
20260906124609 25 0 0.0 0.0 0.00 0.00 0.00 85 1014.1
20260906123105 24 0 0.0 0.0 0.00 0.00 0.00 86 1014.0
20260906121608 23 0 0.0 0.0 0.00 0.00 0.00 86 1013.8
20260906120107 23 0 0.0 1.6 0.00 0.00 0.00 87 1013.6
20260906114607 23 0 0.0 0.0 0.00 0.00 0.00 86 1013.4
20260906113057 23 0 0.0 0.0 0.00 0.00 0.00 86 1013.0
20260906111557 23 0 0.0 0.0 0.00 0.00 0.00 86 1012.8
20260906110056 24 0 0.0 0.0 0.00 0.00 0.00 86 1012.7
20260906104556 24 0 0.0 0.0 0.00 0.00 0.00 85 1012.8
20260906103105 24 0 0.0 0.0 0.00 0.00 0.00 84 1012.6
20260906101553 25 0 0.0 0.0 0.00 0.00 0.00 83 1012.5
20260906100058 25 0 0.0 0.0 0.00 0.00 0.00 82 1012.5
20260906094602 25 0 0.0 0.0 0.00 0.00 0.00 81 1012.4
20260906093059 25 0 0.0 0.0 0.00 0.00 0.00 81 1012.4
20260906091606 26 0 0.0 0.0 0.00 0.00 0.00 80 1012.4
20260906090105 26 0 0.0 0.0 0.00 0.00 0.00 76 1012.2
20260906084603 27 313 0.0 1.6 0.00 0.00 0.00 74 1012.1
20260906083104 27 0 0.0 0.0 0.00 0.00 0.00 73 1012.1
20260906081604 27 0 0.0 0.0 0.00 0.00 0.00 72 1012.0
20260906080057 27 313 0.0 1.6 0.00 0.00 0.00 72 1012.0
20260906074556 27 312 0.0 3.2 0.00 0.00 0.00 71 1012.1
20260906073059 27 0 0.0 3.2 0.00 0.00 0.00 71 1012.3
20260906071554 27 302 0.0 1.6 0.00 0.00 0.00 73 1012.3
20260906070103 26 0 0.0 1.6 0.00 0.00 0.00 75 1012.5
20260906064558 26 0 0.0 0.0 0.00 0.00 0.00 74 1012.4
20260906063057 27 0 0.0 0.0 0.00 0.00 0.00 74 1012.6
20260906061624 28 0 0.0 1.6 0.00 0.00 0.00 68 1012.7
20260906060119 27 0 0.0 0.0 0.00 0.00 0.00 71 1012.8
20260906054556 26 0 0.0 0.0 0.00 0.00 0.00 74 1012.7
20260906053053 26 0 0.0 0.0 0.00 0.00 0.00 74 1012.6
20260906051608 27 0 0.0 0.0 0.00 0.00 0.00 73 1012.5
20260906050104 27 0 0.0 0.0 0.00 0.00 0.00 75 1012.3
20260906044557 27 0 0.0 0.0 0.00 0.00 0.00 73 1012.2
20260906043105 27 0 0.0 0.0 0.00 0.00 0.00 73 1012.1
20260906041601 27 0 0.0 0.0 0.00 0.00 0.00 71 1012.2
20260906040057 27 0 0.0 0.0 0.00 0.00 0.00 70 1012.3
20260906034602 28 0 0.0 0.0 0.00 0.00 0.00 71 1012.3
20260906033100 28 0 0.0 0.0 0.00 0.00 0.00 69 1012.4
20260906031600 28 0 0.0 0.0 0.00 0.00 0.00 68 1012.6
20260906030057 28 0 0.0 0.0 0.00 0.00 0.00 67 1012.5
20260906024559 28 0 0.0 0.0 0.00 0.00 0.00 67 1012.3
20260906023053 29 0 0.0 0.0 0.00 0.00 0.00 65 1012.2
20260906021601 30 0 0.0 0.0 0.00 0.00 0.00 64 1012.1
20260906020105 30 0 0.0 0.0 0.00 0.00 0.00 62 1011.7
20260906014606 30 0 0.0 0.0 0.00 0.00 0.00 60 1011.5
20260906013100 30 0 0.0 0.0 0.00 0.00 0.00 60 1011.2
20260906011604 30 0 0.0 0.0 0.00 0.00 0.00 58 1011.2
20260906010055 31 0 0.0 0.0 0.00 0.00 0.00 60 1010.9
20260906004601 31 0 0.0 0.0 0.00 0.00 0.00 58 1010.9
20260906003104 32 0 0.0 0.0 0.00 0.00 0.00 57 1011.0
20260906001554 32 0 0.0 0.0 0.00 0.00 0.00 55 1011.0
20260906000104 33 0 0.0 0.0 0.00 0.00 0.00 53 1011.2
20260905234557 33 0 0.0 0.0 0.00 0.00 0.00 52 1011.1
20260905233106 35 0 0.0 0.0 0.00 0.00 0.00 49 1010.9
20260905231602 36 0 0.0 1.6 0.00 0.00 0.00 46 1011.0
20260905230100 36 0 0.0 3.2 0.00 0.00 0.00 44 1011.0
20260905224604 37 131 0.0 3.2 0.00 0.00 0.00 43 1011.0
20260905223059 37 142 1.6 4.8 0.00 0.00 0.00 43 1011.0
20260905221602 37 142 0.0 1.6 0.00 0.00 0.00 43 1011.0
20260905214557 38 66 0.0 4.8 0.00 0.00 0.00 41 1011.2
20260905213054 37 0 0.0 3.2 0.00 0.00 0.00 43 1011.3
20260905211613 36 164 1.6 3.2 0.00 0.00 0.00 47 1011.3
20260905210110 36 0 0.0 3.2 0.00 0.00 0.00 49 1011.5
20260905204555 36 257 1.6 6.4 0.00 0.00 0.00 51 1011.9
20260905203101 37 0 0.0 3.2 0.00 0.00 0.00 42 1011.9
20260905201600 38 102 0.0 4.8 0.00 0.00 0.00 40 1012.1
20260905194556 38 0 1.6 6.4 0.00 0.00 0.00 41 1012.3
20260905193056 38 0 0.0 3.2 0.00 0.00 0.00 43 1012.5
20260905191601 37 0 0.0 1.6 0.00 0.00 0.00 46 1012.8
20260905190104 37 0 0.0 3.2 0.00 0.00 0.00 45 1013.0
20260905184602 37 0 0.0 1.6 0.00 0.00 0.00 45 1013.1
20260905183119 38 150 0.0 6.4 0.00 0.00 0.00 43 1013.2
20260905181602 40 167 0.0 6.4 0.00 0.00 0.00 40 1013.4
20260905174605 38 340 1.6 6.4 0.00 0.00 0.00 43 1013.7
20260905173100 38 70 1.6 4.8 0.00 0.00 0.00 41 1013.8
20260905171606 38 255 1.6 4.8 0.00 0.00 0.00 43 1014.0
20260905170057 37 0 0.0 4.8 0.00 0.00 0.00 44 1014.2
20260905164602 36 29 0.0 1.6 0.00 0.00 0.00 47 1014.4
20260905163058 36 158 0.0 4.8 0.00 0.00 0.00 47 1014.6
20260905161555 36 0 0.0 1.6 0.00 0.00 0.00 49 1014.8
20260905160058 36 277 1.6 3.2 0.00 0.00 0.00 47 1014.8
20260905154559 36 342 0.0 4.8 0.00 0.00 0.00 48 1014.9
20260905153106 35 0 0.0 6.4 0.00 0.00 0.00 51 1014.7
20260905151608 35 0 0.0 3.2 0.00 0.00 0.00 52 1014.8